星链-31863 (STARLINK-31863 )

导读 | 星芒AI

STARLINK-31863 是 SpaceX Starlink 项目中的一颗低轨通信卫星,属于第三代星链卫星(v1.5)。该卫星于2023年发射,部署在约540公里高度的近地轨道,主要用于提供全球宽带互联网服务。它采用先进的推进系统和激光通信技术,以提高网络速度和稳定性。作为 Starlink 卫星群的一部分,STARLINK-31863 支持偏远地区的高速互联网接入,并增强整个星座的冗余与覆盖能力。

基本信息
目录编号:
59789
目录名称:
STARLINK-31863
国际标识:
2024-093H
轨道中心:
EARTH
卫星名称:
星链-31863
卫星全名:
星链-31863 (STARLINK-31863 )
卫星状态:
在轨 (已飞行533 天)
发射日期:
2024-05-18 UTC
国别 :
美国 (US)
星等 :
--
轨道信息
数据来源 国际轨道数据 AOE轨道数据
星历时间 2025-11-01T18:24:40+0800
23小时前
查看轨道信息
2025-10-30T21:00:00+0800
2天前
查看轨道信息
半长轴 6861.248km 6861.203km
偏心率 0.0001356 0.0001933
轨道倾角 43.002° 42.998°
近地点辐角 295.865° 241.033°
升交点赤经 212.935° 223.619°
平近点角 64.206° 141.628°
近地点 482.182km 481.741km
远地点 484.044km 484.395km
周期 94.268分钟 94.267分钟
每日圈数 15.275595 15.275745
详细信息
固有亮度:
5
最大亮度:
1.5
卫星平台:
Starlink v2.0 mini
覆盖范围:
全球
运营商:
太空探索技术公司
运营商所在国:
美国
制造商(研发单位):
太空探索技术公司
制造商所在国:
美国
使用方式:
暂无
卫星简介
星链(Starlink)计划是由太空探索技术公司(SpaceX)提出的一个巨型低轨卫星互联网星座项目,计划在2019年至2024年间在太空搭建由约1.2万颗卫星组成的“星链”网络,其中1584颗将部署在地球上空550千米处的近地轨道,并从2020年开始工作。该卫星仍在工作。
2D轨道图
3D轨道图
轨道高度分析图
轨道倾角分析图
轨道综合分析图
查看轨道综合分析图